Content
SEND FEEDBACK

Daily
Averages
Monthly
Summary
United States of America

ASATDAS, GUAM


Home > North America > United States > Guam
Elevation: 186 meters     Latitude: 13 35N     Longitude: 144 56E

WEATHER
 
SELECT A DAY
Number of Records: 209,379;   Date Range: 1/1/95 - 9/21/14
 
SHARE

PRINT THIS DATA

[ ← Previous Day ]
WEATHER ALMANAC - 26 JUNE, 2013
[ Next Day → ]
[ °F ]   °C
We're sorry. There is no daily almanac available for Asatdas, Guam on 26 June, 2013.
WEATHER BY HOUR - 26 JUNE, 2013
[ °F ]   °C
Local TimeTemperatureDewpointHumidityBarometerVisibilityWind DirectionWind SpeedGust SpeedPrecipitationEventsConditions
1:54 AM28.9 °C24.4 °C76 %1010.8 hPa16.1 kmEast (80°)22.2 km/hPartly Cloudy
2:54 AM28.3 °C25 °C82 %1010.5 hPa16.1 kmEast (90°)20.4 km/h0 mmScattered Clouds
3:02 AM28 °C25 °C84 %1011.2 hPa16.1 kmEast (90°)16.7 km/hMostly Cloudy
3:10 AM28 °C24 °C79 %1011.2 hPa16.1 kmEast (90°)18.5 km/hScattered Clouds
3:54 AM28.9 °C23.9 °C74 %1010.2 hPa16.1 kmEast (90°)20.4 km/hPartly Cloudy
4:54 AM28.9 °C23.9 °C74 %1010.2 hPa16.1 kmEast (90°)18.5 km/hPartly Cloudy
5:54 AM28.9 °C24.4 °C76 %1010.5 hPa16.1 kmEast (90°)14.8 km/hScattered Clouds
6:54 AM28.9 °C23.9 °C74 %1011.2 hPa16.1 kmEast (100°)22.2 km/h31.5 km/hPartly Cloudy
7:54 AM30 °C24.4 °C72 %1011.2 hPa16.1 kmEast (100°)18.5 km/hPartly Cloudy
8:14 AM29 °C25 °C79 %1012.2 hPa16.1 kmESE (110°)16.7 km/h0 mmRainLight Rain
8:45 AM30 °C24 °C70 %1012.5 hPa16.1 kmESE (110°)22.2 km/h0 mmScattered Clouds
8:54 AM30 °C23.9 °C70 %1011.9 hPa16.1 kmESE (110°)22.2 km/h0 mmScattered Clouds
9:54 AM30.6 °C23.9 °C67 %1011.5 hPa16.1 kmEast (100°)22.2 km/h37 km/h0 mmPartly Cloudy
10:54 AM32.2 °C24.4 °C63 %1011.2 hPa16.1 kmESE (110°)16.7 km/h38.9 km/hPartly Cloudy
11:54 AM31.7 °C24.4 °C65 %1011.2 hPa16.1 kmESE (120°)14.8 km/h37 km/hPartly Cloudy
12:54 PM31.1 °C25.6 °C72 %1010.5 hPa16.1 kmESE (110°)14.8 km/h0.51 mmScattered Clouds
1:54 PM31.7 °C25 °C67 %1010.2 hPa16.1 kmESE (120°)18.5 km/h29.6 km/hMostly Cloudy
2:54 PM31.7 °C24.4 °C65 %1009.8 hPa16.1 kmESE (110°)14.8 km/h27.8 km/hPartly Cloudy
3:30 PM31 °C25 °C70 %1010.5 hPa16.1 kmESE (120°)16.7 km/hMostly Cloudy
3:41 PM31 °C24 °C66 %1010.5 hPa16.1 kmEast (100°)14.8 km/hScattered Clouds
3:49 PM31 °C24 °C66 %1010.5 hPa16.1 kmEast (100°)18.5 km/hMostly Cloudy
3:54 PM31.7 °C24.4 °C65 %1009.8 hPa16.1 kmEast (100°)18.5 km/hMostly Cloudy
4:54 PM30 °C25 °C74 %1009.5 hPa16.1 kmESE (110°)16.7 km/h0.76 mmClear
5:54 PM30 °C25 °C74 %1009.8 hPa16.1 kmEast (80°)16.7 km/hPartly Cloudy
6:54 PM28.9 °C25.6 °C82 %1009.8 hPa16.1 kmEast (80°)9.3 km/h0.76 mmPartly Cloudy
7:54 PM28 °C25 °C84 %1010.8 hPa16.1 kmEast (80°)13 km/hPartly Cloudy
8:54 PM28 °C25 °C84 %1011.2 hPa16.1 kmEast (100°)7.4 km/hPartly Cloudy
9:54 PM27.2 °C25 °C88 %1011.2 hPa16.1 kmEast (100°)7.4 km/h0.25 mmPartly Cloudy
10:54 PM27.8 °C25 °C85 %1011.5 hPa16.1 kmESE (110°)7.4 km/hPartly Cloudy
11:54 PM26.7 °C23.3 °C81 %1011.5 hPa1.9 kmESE (120°)16.7 km/h40.7 km/h1.52 mmRainHeavy Rain
Hourly data recorded from PGUM, located 0 kilometers away from Asatdas, Guam







STORIES FROM OUR PARTNERS